This is the latest recevied weather packets stored in our database for station/object KC1TEM-13. If no packets are shown the sender has not sent any weather packets the latest 1 day(s).
| Time | Temp. | Humidity | Pressure | Rain* | Wind** | Luminosity | Snow |
|---|---|---|---|---|---|---|---|
| 1778011384 | 28.89° C | 31% | 1005 hPa | 0 mm | 4.47 m/s, 189° | 206 W/m² | - |
| 1778011079 | 28.89° C | 32% | 1005.1 hPa | 0 mm | 2.24 m/s, 217° | 551 W/m² | - |
| 1778010777 | 28.33° C | 32% | 1004.9 hPa | 0 mm | 0.89 m/s, 229° | 589 W/m² | - |
| 1778010473 | 28.33° C | 32% | 1005.3 hPa | 0 mm | 3.13 m/s, 250° | 284 W/m² | - |
| 1778010170 | 28.33° C | 32% | 1005 hPa | 0 mm | 4.02 m/s, 235° | 110 W/m² | - |
| 1778009866 | 27.78° C | 33% | 1005.1 hPa | 0 mm | 1.79 m/s, 240° | 172 W/m² | - |
| 1778009564 | 27.78° C | 32% | 1005.1 hPa | 0 mm | 3.13 m/s, 232° | 151 W/m² | - |
| 1778009262 | 28.33° C | 32% | 1005.3 hPa | 0 mm | 2.24 m/s, 244° | 541 W/m² | - |
| 1778008959 | 28.89° C | 31% | 1005.2 hPa | 0 mm | 2.24 m/s, 187° | 163 W/m² | - |
| 1778008657 | 28.33° C | 32% | 1005.6 hPa | 0 mm | 0.89 m/s, 195° | 162 W/m² | - |
| 1778008355 | 27.78° C | 33% | 1005.6 hPa | 0 mm | 2.68 m/s, 240° | 683 W/m² | - |
| 1778008051 | 28.33° C | 33% | 1005.8 hPa | 0 mm | 0.89 m/s, 212° | 195 W/m² | - |
| 1778007751 | 28.33° C | 32% | 1005.7 hPa | 0 mm | 0.45 m/s, 164° | 257 W/m² | - |
| 1778007448 | 28.89° C | 30% | 1005.5 hPa | 0 mm | 1.79 m/s, 244° | 743 W/m² | - |
| 1778007145 | 28.89° C | 29% | 1005.9 hPa | 0 mm | 0.89 m/s, 211° | 735 W/m² | - |
| 1778006840 | 28.89° C | 29% | 1005.9 hPa | 0 mm | 1.34 m/s, 192° | 748 W/m² | - |
| 1778006538 | 28.89° C | 29% | 1006 hPa | 0 mm | 2.68 m/s, 203° | 223 W/m² | - |
| 1778006235 | 28.89° C | 30% | 1005.9 hPa | 0 mm | 0.89 m/s, 180° | 716 W/m² | - |
| 1778005933 | 28.89° C | 33% | 1006 hPa | 0 mm | 0.45 m/s, 299° | 778 W/m² | - |
| 1778005628 | 28.33° C | 32% | 1006.2 hPa | 0 mm | 3.13 m/s, 247° | 800 W/m² | - |
| 1778005326 | 28.89° C | 32% | 1006.2 hPa | 0 mm | 1.79 m/s, 135° | 779 W/m² | - |
| 1778005022 | 28.89° C | 32% | 1006 hPa | 0 mm | 3.13 m/s, 204° | 796 W/m² | - |
| 1778004720 | 28.89° C | 32% | 1006.1 hPa | 0 mm | 1.79 m/s, 208° | 762 W/m² | - |
| 1778004415 | 27.78° C | 33% | 1006.4 hPa | 0 mm | 1.79 m/s, 236° | 752 W/m² | - |
| 1778004113 | 28.89° C | 33% | 1006.6 hPa | 0 mm | 0.89 m/s, 209° | 779 W/m² | - |
* Rain latest hour (hover to see other rain measurements)
** Current wind speed in m/s (hover to see current wind gust speed)